| time (UTC) | temp C | wind direction | speed KPH | gust KPH | rain 1hr cm | rain 24hr cm | rain mn cm | humidity % | barometer mb |
| 20260508011637 | 18 | 11 | 0.0 | 1.6 | 0.00 | 0.00 | 0.00 | 72 | 1000.1 |
| 20260508011136 | 19 | 342 | 0.0 | 3.2 | 0.00 | 0.00 | 0.00 | 70 | 1000.4 |
| 20260508010537 | 19 | 6 | 0.0 | 1.6 | 0.00 | 0.00 | 0.00 | 70 | 1000.1 |
| 20260508005945 | 19 | 28 | 0.0 | 3.2 | 0.00 | 0.00 | 0.00 | 69 | 1000.1 |
| 20260508005438 | 19 | 147 | 0.0 | 1.6 | 0.00 | 0.00 | 0.00 | 69 | 1000.2 |
| 20260508004945 | 19 | 44 | 0.0 | 3.2 | 0.00 | 0.00 | 0.00 | 68 | 1000.5 |
| 20260508004339 | 19 | 282 | 0.0 | 0.0 | 0.00 | 0.00 | 0.00 | 68 | 1000.2 |
| 20260508001736 | 20 | 50 | 0.0 | 1.6 | 0.00 | 0.00 | 0.00 | 67 | 1000.4 |
| 20260508001152 | 20 | 41 | 0.0 | 1.6 | 0.00 | 0.00 | 0.00 | 67 | 1000.1 |
| 20260508000637 | 20 | 228 | 0.0 | 0.0 | 0.00 | 0.00 | 0.00 | 66 | 999.9 |
| 20260508000138 | 20 | 306 | 0.0 | 1.6 | 0.00 | 0.00 | 0.00 | 67 | 999.9 |
| 20260507235539 | 20 | 135 | 0.0 | 1.6 | 0.00 | 0.00 | 0.00 | 66 | 1000.0 |
| 20260507235035 | 20 | 124 | 1.6 | 3.2 | 0.00 | 0.00 | 0.00 | 64 | 1000.3 |
| 20260507234436 | 20 | 321 | 0.0 | 1.6 | 0.00 | 0.00 | 0.00 | 64 | 1000.5 |
| 20260507233935 | 20 | 22 | 0.0 | 3.2 | 0.00 | 0.00 | 0.00 | 63 | 1000.1 |
| 20260507233337 | 20 | 74 | 0.0 | 3.2 | 0.00 | 0.00 | 0.00 | 64 | 1000.6 |
| 20260507232737 | 20 | 180 | 1.6 | 1.6 | 0.00 | 0.00 | 0.00 | 64 | 1000.4 |
| 20260507232137 | 21 | 180 | 0.0 | 1.6 | 0.00 | 0.00 | 0.00 | 63 | 1000.4 |
| 20260507224647 | 21 | 322 | 3.2 | 3.2 | 0.00 | 0.00 | 0.00 | 63 | 1000.0 |
| 20260507224038 | 21 | 284 | 0.0 | 3.2 | 0.00 | 0.00 | 0.00 | 61 | 999.9 |
| 20260507223439 | 21 | 53 | 0.0 | 3.2 | 0.00 | 0.00 | 0.00 | 62 | 1000.0 |
| 20260507222937 | 21 | 193 | 0.0 | 3.2 | 0.00 | 0.00 | 0.00 | 63 | 999.8 |
| 20260507222355 | 21 | 3 | 0.0 | 3.2 | 0.00 | 0.00 | 0.00 | 61 | 999.8 |
| 20260507221847 | 21 | 104 | 0.0 | 3.2 | 0.00 | 0.00 | 0.00 | 61 | 1000.3 |
| 20260507221237 | 21 | 113 | 1.6 | 1.6 | 0.00 | 0.00 | 0.00 | 60 | 1000.4 |
| 20260507220638 | 21 | 251 | 1.6 | 4.8 | 0.00 | 0.00 | 0.00 | 60 | 1000.3 |
| 20260507220037 | 22 | 116 | 0.0 | 3.2 | 0.00 | 0.00 | 0.00 | 61 | 1000.0 |
| 20260507215447 | 22 | 89 | 0.0 | 4.8 | 0.00 | 0.00 | 0.00 | 62 | 1000.4 |
| 20260507214936 | 22 | 103 | 0.0 | 1.6 | 0.00 | 0.00 | 0.00 | 61 | 1000.4 |
| 20260507214343 | 22 | 135 | 0.0 | 3.2 | 0.00 | 0.00 | 0.00 | 62 | 1000.4 |
| 20260507213848 | 22 | 256 | 0.0 | 1.6 | 0.00 | 0.00 | 0.00 | 60 | 1000.3 |
| 20260507213239 | 22 | 135 | 0.0 | 1.6 | 0.00 | 0.00 | 0.00 | 60 | 1000.2 |
| 20260507212736 | 22 | 354 | 0.0 | 4.8 | 0.00 | 0.00 | 0.00 | 59 | 1000.3 |
| 20260507212137 | 22 | 307 | 1.6 | 3.2 | 0.00 | 0.00 | 0.00 | 59 | 1000.1 |
| 20260507211639 | 22 | 137 | 1.6 | 3.2 | 0.00 | 0.00 | 0.00 | 59 | 1000.2 |
| 20260507211137 | 23 | 60 | 0.0 | 3.2 | 0.00 | 0.00 | 0.00 | 56 | 1000.1 |
| 20260507210540 | 23 | 210 | 3.2 | 3.2 | 0.00 | 0.00 | 0.00 | 57 | 1000.2 |
| 20260507205940 | 22 | 343 | 0.0 | 1.6 | 0.00 | 0.00 | 0.00 | 58 | 1000.5 |
| 20260507205436 | 23 | 351 | 0.0 | 4.8 | 0.00 | 0.00 | 0.00 | 57 | 1000.6 |
| 20260507204936 | 23 | 203 | 3.2 | 4.8 | 0.00 | 0.00 | 0.00 | 56 | 1000.8 |
| 20260507204336 | 23 | 321 | 3.2 | 3.2 | 0.00 | 0.00 | 0.00 | 54 | 1000.9 |
| 20260507203743 | 23 | 217 | 4.8 | 4.8 | 0.00 | 0.00 | 0.00 | 55 | 1000.6 |
| 20260507203247 | 23 | 84 | 1.6 | 3.2 | 0.00 | 0.00 | 0.00 | 57 | 1001.0 |
| 20260507202638 | 22 | 110 | 0.0 | 3.2 | 0.00 | 0.00 | 0.00 | 57 | 1000.6 |
| 20260507202139 | 22 | 74 | 1.6 | 4.8 | 0.00 | 0.00 | 0.00 | 59 | 1000.7 |
| 20260507201639 | 22 | 178 | 1.6 | 4.8 | 0.00 | 0.00 | 0.00 | 59 | 1001.0 |
| 20260507201039 | 22 | 343 | 1.6 | 4.8 | 0.00 | 0.00 | 0.00 | 58 | 1001.0 |
| 20260507200439 | 22 | 241 | 3.2 | 3.2 | 0.00 | 0.00 | 0.00 | 60 | 1000.8 |
| 20260507195936 | 22 | 293 | 3.2 | 4.8 | 0.00 | 0.00 | 0.00 | 59 | 1001.2 |
| 20260507195335 | 22 | 317 | 3.2 | 3.2 | 0.00 | 0.00 | 0.00 | 58 | 1001.2 |
| 20260507194738 | 22 | 9 | 3.2 | 3.2 | 0.00 | 0.00 | 0.00 | 59 | 1001.0 |
| 20260507194141 | 22 | 26 | 0.0 | 4.8 | 0.00 | 0.00 | 0.00 | 57 | 1001.3 |
| 20260507193636 | 23 | 11 | 3.2 | 6.4 | 0.00 | 0.00 | 0.00 | 56 | 1001.4 |
| 20260507193049 | 23 | 325 | 3.2 | 3.2 | 0.00 | 0.00 | 0.00 | 56 | 1001.6 |
| 20260507192537 | 22 | 62 | 3.2 | 4.8 | 0.00 | 0.00 | 0.00 | 58 | 1001.5 |
| 20260507192038 | 22 | 119 | 0.0 | 1.6 | 0.00 | 0.00 | 0.00 | 59 | 1001.4 |
| 20260507191439 | 22 | 110 | 4.8 | 6.4 | 0.00 | 0.00 | 0.00 | 59 | 1001.4 |
| 20260507190857 | 22 | 70 | 1.6 | 3.2 | 0.00 | 0.00 | 0.00 | 58 | 1001.5 |
| 20260507190336 | 22 | 334 | 1.6 | 4.8 | 0.00 | 0.00 | 0.00 | 57 | 1001.7 |
| 20260507185847 | 22 | 22 | 0.0 | 3.2 | 0.00 | 0.00 | 0.00 | 57 | 1002.2 |
| 20260507185244 | 22 | 268 | 3.2 | 4.8 | 0.00 | 0.00 | 0.00 | 59 | 1002.2 |
| 20260507184737 | 22 | 24 | 0.0 | 4.8 | 0.00 | 0.00 | 0.00 | 57 | 1002.5 |
| 20260507184143 | 22 | 294 | 3.2 | 4.8 | 0.00 | 0.00 | 0.00 | 60 | 1002.2 |
| 20260507183651 | 22 | 319 | 0.0 | 4.8 | 0.00 | 0.00 | 0.00 | 60 | 1002.0 |
| 20260507183137 | 21 | 62 | 3.2 | 3.2 | 0.00 | 0.00 | 0.00 | 60 | 1001.8 |
| 20260507182636 | 22 | 61 | 1.6 | 3.2 | 0.00 | 0.00 | 0.00 | 60 | 1002.0 |
| 20260507182145 | 21 | 157 | 3.2 | 4.8 | 0.00 | 0.00 | 0.00 | 60 | 1001.5 |
| 20260507181635 | 21 | 128 | 3.2 | 6.4 | 0.00 | 0.00 | 0.00 | 61 | 1001.8 |
| 20260507181037 | 21 | 17 | 1.6 | 3.2 | 0.00 | 0.00 | 0.00 | 61 | 1002.1 |
| 20260507180537 | 21 | 354 | 3.2 | 6.4 | 0.00 | 0.00 | 0.00 | 63 | 1002.3 |
| 20260507180036 | 20 | 173 | 0.0 | 4.8 | 0.00 | 0.00 | 0.00 | 64 | 1002.4 |
| 20260507175439 | 20 | 265 | 0.0 | 4.8 | 0.00 | 0.00 | 0.00 | 62 | 1002.3 |
| 20260507174936 | 21 | 339 | 3.2 | 4.8 | 0.00 | 0.00 | 0.00 | 62 | 1002.6 |
| 20260507174336 | 21 | 24 | 4.8 | 6.4 | 0.00 | 0.00 | 0.00 | 65 | 1002.6 |
| 20260507173846 | 20 | 243 | 1.6 | 3.2 | 0.00 | 0.00 | 0.00 | 64 | 1002.3 |
| 20260507173246 | 19 | 306 | 1.6 | 3.2 | 0.00 | 0.00 | 0.00 | 67 | 1002.4 |
| 20260507172748 | 19 | 301 | 1.6 | 8.0 | 0.00 | 0.00 | 0.00 | 66 | 1002.6 |
| 20260507172145 | 19 | 301 | 3.2 | 3.2 | 0.00 | 0.00 | 0.00 | 70 | 1002.7 |
| 20260507171537 | 19 | 14 | 9.7 | 9.7 | 0.00 | 0.00 | 0.00 | 66 | 1002.8 |
| 20260507171036 | 19 | 46 | 1.6 | 6.4 | 0.00 | 0.00 | 0.00 | 68 | 1002.9 |
| 20260507170435 | 19 | 98 | 4.8 | 6.4 | 0.00 | 0.00 | 0.00 | 68 | 1003.0 |
| 20260507165835 | 19 | 39 | 3.2 | 4.8 | 0.00 | 0.00 | 0.00 | 68 | 1002.6 |
| 20260507165248 | 18 | 88 | 0.0 | 6.4 | 0.00 | 0.00 | 0.00 | 70 | 1002.7 |
| 20260507164637 | 18 | 152 | 1.6 | 3.2 | 0.00 | 0.00 | 0.00 | 70 | 1002.7 |
| 20260507164035 | 18 | 144 | 1.6 | 8.0 | 0.00 | 0.00 | 0.00 | 68 | 1003.0 |
| 20260507163436 | 18 | 350 | 1.6 | 4.8 | 0.00 | 0.00 | 0.00 | 70 | 1002.8 |
| 20260507162836 | 18 | 348 | 1.6 | 3.2 | 0.00 | 0.00 | 0.00 | 71 | 1003.0 |
| 20260507162336 | 18 | 30 | 4.8 | 4.8 | 0.00 | 0.00 | 0.00 | 69 | 1003.1 |
| 20260507161736 | 18 | 30 | 3.2 | 4.8 | 0.00 | 0.00 | 0.00 | 71 | 1002.7 |
| 20260507161142 | 17 | 217 | 3.2 | 4.8 | 0.00 | 0.00 | 0.00 | 73 | 1002.1 |
| 20260507160638 | 17 | 56 | 3.2 | 4.8 | 0.00 | 0.00 | 0.00 | 74 | 1001.7 |
| 20260507160136 | 17 | 133 | 3.2 | 4.8 | 0.00 | 0.00 | 0.00 | 76 | 1001.6 |
| 20260507155636 | 16 | 137 | 0.0 | 4.8 | 0.00 | 0.00 | 0.00 | 77 | 1001.6 |
| 20260507155036 | 16 | 44 | 3.2 | 3.2 | 0.00 | 0.00 | 0.00 | 78 | 1002.0 |
| 20260507154535 | 16 | 4 | 1.6 | 6.4 | 0.00 | 0.00 | 0.00 | 78 | 1001.7 |
| 20260507153936 | 16 | 36 | 3.2 | 3.2 | 0.00 | 0.00 | 0.00 | 78 | 1002.4 |
| 20260507153435 | 16 | 33 | 3.2 | 3.2 | 0.00 | 0.00 | 0.00 | 77 | 1002.7 |
| 20260507152836 | 16 | 139 | 3.2 | 4.8 | 0.00 | 0.00 | 0.00 | 78 | 1003.0 |
| 20260507152238 | 16 | 154 | 1.6 | 4.8 | 0.00 | 0.00 | 0.00 | 78 | 1003.1 |
| 20260507151736 | 16 | 121 | 1.6 | 4.8 | 0.00 | 0.00 | 0.00 | 79 | 1002.9 |
| 20260507151136 | 15 | 150 | 4.8 | 4.8 | 0.00 | 0.00 | 0.00 | 80 | 1002.9 |
| 20260507150538 | 15 | 113 | 3.2 | 4.8 | 0.00 | 0.00 | 0.00 | 81 | 1002.9 |
| 20260507150036 | 15 | 17 | 3.2 | 3.2 | 0.00 | 0.00 | 0.00 | 80 | 1002.9 |
| 20260507145535 | 15 | 82 | 1.6 | 4.8 | 0.00 | 0.00 | 0.00 | 81 | 1002.9 |
| 20260507144936 | 15 | 141 | 0.0 | 3.2 | 0.00 | 0.00 | 0.00 | 81 | 1003.2 |
| 20260507144435 | 15 | 87 | 3.2 | 4.8 | 0.00 | 0.00 | 0.00 | 80 | 1003.3 |
| 20260507143935 | 15 | 120 | 1.6 | 8.0 | 0.00 | 0.00 | 0.00 | 81 | 1003.4 |
| 20260507143435 | 15 | 23 | 6.4 | 6.4 | 0.00 | 0.00 | 0.00 | 82 | 1003.2 |
| 20260507142836 | 15 | 110 | 3.2 | 6.4 | 0.00 | 0.00 | 0.00 | 82 | 1003.4 |
| 20260507142236 | 14 | 101 | 1.6 | 6.4 | 0.00 | 0.00 | 0.00 | 83 | 1002.9 |
| 20260507141746 | 14 | 23 | 6.4 | 8.0 | 0.00 | 0.00 | 0.00 | 84 | 1002.9 |
| 20260507141136 | 14 | 89 | 0.0 | 4.8 | 0.00 | 0.00 | 0.00 | 84 | 1003.1 |
| 20260507140635 | 14 | 36 | 3.2 | 4.8 | 0.00 | 0.00 | 0.00 | 84 | 1002.9 |
| 20260507140137 | 14 | 102 | 3.2 | 4.8 | 0.00 | 0.00 | 0.00 | 85 | 1002.9 |
| 20260507135535 | 14 | 112 | 1.6 | 3.2 | 0.00 | 0.00 | 0.00 | 86 | 1002.9 |
| 20260507135035 | 14 | 70 | 1.6 | 4.8 | 0.00 | 0.00 | 0.00 | 86 | 1003.1 |
| 20260507134446 | 14 | 26 | 3.2 | 4.8 | 0.00 | 0.00 | 0.00 | 87 | 1003.0 |
| 20260507133936 | 14 | 117 | 3.2 | 3.2 | 0.00 | 0.00 | 0.00 | 86 | 1003.2 |
| 20260507133336 | 14 | 85 | 4.8 | 4.8 | 0.00 | 0.00 | 0.00 | 85 | 1003.1 |
| 20260507132835 | 14 | 52 | 3.2 | 4.8 | 0.00 | 0.00 | 0.00 | 87 | 1003.1 |
| 20260507132337 | 14 | 73 | 1.6 | 3.2 | 0.00 | 0.00 | 0.00 | 87 | 1002.8 |
| 20260507131735 | 14 | 107 | 4.8 | 4.8 | 0.00 | 0.00 | 0.00 | 87 | 1002.8 |
| 20260507131138 | 14 | 55 | 3.2 | 4.8 | 0.00 | 0.00 | 0.00 | 87 | 1003.1 |
| 20260507130635 | 14 | 73 | 0.0 | 3.2 | 0.00 | 0.00 | 0.00 | 87 | 1003.3 |
| 20260507130136 | 14 | 80 | 3.2 | 6.4 | 0.00 | 0.00 | 0.00 | 87 | 1003.0 |
| 20260507125638 | 14 | 8 | 3.2 | 4.8 | 0.00 | 0.00 | 0.00 | 87 | 1002.8 |
| 20260507125037 | 14 | 138 | 0.0 | 3.2 | 0.00 | 0.00 | 0.00 | 87 | 1002.9 |
| 20260507124436 | 14 | 82 | 1.6 | 4.8 | 0.00 | 0.00 | 0.00 | 87 | 1003.0 |
| 20260507123935 | 14 | 79 | 1.6 | 3.2 | 0.00 | 0.00 | 0.00 | 87 | 1002.9 |
| 20260507123336 | 14 | 121 | 1.6 | 4.8 | 0.00 | 0.00 | 0.00 | 87 | 1002.9 |
| 20260507122737 | 14 | 342 | 3.2 | 6.4 | 0.00 | 0.00 | 0.00 | 86 | 1002.4 |
| 20260507122239 | 14 | 336 | 4.8 | 4.8 | 0.00 | 0.00 | 0.00 | 87 | 1002.5 |
| 20260507121736 | 14 | 305 | 0.0 | 3.2 | 0.00 | 0.00 | 0.00 | 88 | 1002.3 |
| 20260507121150 | 14 | 96 | 3.2 | 6.4 | 0.00 | 0.00 | 0.00 | 88 | 1002.0 |
| 20260507120640 | 14 | 104 | 0.0 | 4.8 | 0.00 | 0.00 | 0.00 | 88 | 1001.7 |
| 20260507120149 | 14 | 68 | 3.2 | 4.8 | 0.00 | 0.00 | 0.00 | 89 | 1001.7 |
| 20260507115538 | 15 | 102 | 1.6 | 4.8 | 0.00 | 0.00 | 0.00 | 90 | 1001.7 |
| 20260507115047 | 15 | 36 | 3.2 | 4.8 | 0.00 | 0.00 | 0.00 | 90 | 1001.7 |
| 20260507114537 | 15 | 356 | 3.2 | 6.4 | 0.00 | 0.00 | 0.00 | 90 | 1001.4 |
| 20260507113937 | 15 | 17 | 3.2 | 3.2 | 0.00 | 0.00 | 0.00 | 90 | 1001.7 |
| 20260507113339 | 15 | 86 | 1.6 | 3.2 | 0.00 | 0.00 | 0.00 | 89 | 1001.8 |
| 20260507112837 | 15 | 108 | 0.0 | 6.4 | 0.00 | 0.00 | 0.00 | 89 | 1001.4 |
| 20260507112336 | 15 | 131 | 3.2 | 6.4 | 0.00 | 0.00 | 0.00 | 89 | 1001.6 |
| 20260507111836 | 15 | 279 | 3.2 | 6.4 | 0.00 | 0.00 | 0.00 | 88 | 1001.7 |
| 20260507111338 | 15 | 15 | 3.2 | 4.8 | 0.00 | 0.00 | 0.00 | 88 | 1001.4 |
| 20260507110737 | 15 | 271 | 0.0 | 4.8 | 0.00 | 0.00 | 0.00 | 88 | 1001.2 |
| 20260507110136 | 15 | 37 | 3.2 | 4.8 | 0.00 | 0.00 | 0.00 | 88 | 1001.4 |
| 20260507105538 | 15 | 49 | 3.2 | 4.8 | 0.00 | 0.00 | 0.00 | 87 | 1001.4 |
| 20260507104937 | 15 | 25 | 0.0 | 3.2 | 0.00 | 0.00 | 0.00 | 87 | 1001.4 |
| 20260507104336 | 15 | 26 | 0.0 | 4.8 | 0.00 | 0.00 | 0.00 | 87 | 1001.1 |
| 20260507103737 | 15 | 9 | 1.6 | 4.8 | 0.00 | 0.00 | 0.00 | 87 | 1000.9 |
| 20260507103236 | 15 | 40 | 0.0 | 3.2 | 0.00 | 0.00 | 0.00 | 87 | 1001.0 |
| 20260507102636 | 15 | 96 | 3.2 | 6.4 | 0.00 | 0.00 | 0.00 | 88 | 1000.1 |
| 20260507102038 | 15 | 76 | 1.6 | 3.2 | 0.00 | 0.00 | 0.00 | 89 | 1000.5 |
| 20260507101436 | 15 | 7 | 0.0 | 4.8 | 0.00 | 0.00 | 0.00 | 89 | 1000.5 |
| 20260507100936 | 15 | 46 | 0.0 | 4.8 | 0.00 | 0.00 | 0.00 | 89 | 1000.7 |
| 20260507100338 | 15 | 338 | 3.2 | 4.8 | 0.00 | 0.00 | 0.00 | 90 | 1000.2 |
| 20260507095737 | 15 | 55 | 3.2 | 3.2 | 0.00 | 0.00 | 0.00 | 90 | 1000.0 |
| 20260507095136 | 15 | 48 | 1.6 | 3.2 | 0.00 | 0.00 | 0.00 | 90 | 999.9 |
| 20260507094636 | 15 | 62 | 0.0 | 3.2 | 0.00 | 0.00 | 0.00 | 90 | 999.6 |
| 20260507094135 | 16 | 62 | 3.2 | 3.2 | 0.00 | 0.00 | 0.00 | 89 | 999.5 |
| 20260507093648 | 16 | 351 | 0.0 | 4.8 | 0.00 | 0.00 | 0.00 | 89 | 999.2 |
| 20260507093047 | 16 | 81 | 1.6 | 3.2 | 0.00 | 0.00 | 0.00 | 89 | 999.3 |
| 20260507092537 | 16 | 130 | 3.2 | 4.8 | 0.00 | 0.00 | 0.00 | 89 | 999.3 |
| 20260507091950 | 16 | 69 | 0.0 | 3.2 | 0.00 | 0.00 | 0.00 | 88 | 999.4 |
| 20260507091336 | 16 | 16 | 1.6 | 3.2 | 0.00 | 0.00 | 0.00 | 89 | 999.4 |
| 20260507090837 | 16 | 139 | 3.2 | 3.2 | 0.00 | 0.00 | 0.00 | 88 | 999.5 |
| 20260507090336 | 16 | 185 | 0.0 | 4.8 | 0.00 | 0.00 | 0.00 | 88 | 999.9 |
| 20260507085736 | 16 | 222 | 1.6 | 4.8 | 0.00 | 0.00 | 0.00 | 88 | 999.6 |
| 20260507085235 | 16 | 120 | 3.2 | 3.2 | 0.00 | 0.00 | 0.00 | 88 | 999.9 |
| 20260507084636 | 16 | 176 | 3.2 | 4.8 | 0.00 | 0.00 | 0.00 | 88 | 1000.2 |
| 20260507084037 | 16 | 336 | 1.6 | 3.2 | 0.00 | 0.00 | 0.00 | 88 | 999.7 |
| 20260507083535 | 16 | 73 | 0.0 | 3.2 | 0.00 | 0.00 | 0.00 | 88 | 999.8 |
| 20260507082936 | 16 | 123 | 1.6 | 3.2 | 0.00 | 0.00 | 0.00 | 88 | 999.4 |
| 20260507082336 | 16 | 106 | 4.8 | 8.0 | 0.00 | 0.00 | 0.00 | 88 | 999.0 |
| 20260507081736 | 16 | 337 | 3.2 | 6.4 | 0.00 | 0.00 | 0.00 | 88 | 999.3 |
| 20260507081136 | 16 | 75 | 1.6 | 3.2 | 0.00 | 0.00 | 0.00 | 88 | 999.2 |
| 20260507080636 | 16 | 357 | 1.6 | 4.8 | 0.00 | 0.00 | 0.00 | 88 | 999.7 |
| 20260507080135 | 16 | 116 | 3.2 | 4.8 | 0.00 | 0.00 | 0.00 | 88 | 1000.2 |
| 20260507075535 | 16 | 177 | 3.2 | 4.8 | 0.00 | 0.00 | 0.00 | 88 | 1000.0 |
| 20260507075035 | 16 | 200 | 3.2 | 6.4 | 0.00 | 0.00 | 0.00 | 89 | 999.9 |
| 20260507074439 | 16 | 45 | 3.2 | 4.8 | 0.00 | 0.00 | 0.00 | 89 | 1000.4 |
| 20260507073835 | 16 | 105 | 3.2 | 4.8 | 0.00 | 0.00 | 0.00 | 89 | 1000.1 |
| 20260507073246 | 16 | 73 | 1.6 | 8.0 | 0.00 | 0.00 | 0.00 | 90 | 1000.1 |
| 20260507072635 | 16 | 104 | 3.2 | 4.8 | 0.00 | 0.00 | 0.00 | 91 | 999.7 |
| 20260507072035 | 16 | 159 | 1.6 | 6.4 | 0.00 | 0.00 | 0.00 | 91 | 1000.1 |
| 20260507071536 | 16 | 337 | 3.2 | 4.8 | 0.00 | 0.00 | 0.00 | 90 | 1000.1 |
| 20260507070945 | 16 | 109 | 3.2 | 3.2 | 0.00 | 0.00 | 0.00 | 90 | 1000.3 |
| 20260507070336 | 17 | 5 | 3.2 | 6.4 | 0.00 | 0.00 | 0.00 | 90 | 1000.7 |
| 20260507065735 | 16 | 162 | 3.2 | 4.8 | 0.00 | 0.00 | 0.00 | 90 | 1000.3 |
| 20260507065245 | 17 | 14 | 4.8 | 6.4 | 0.00 | 0.00 | 0.00 | 89 | 1000.7 |
| 20260507064636 | 17 | 48 | 0.0 | 3.2 | 0.00 | 0.00 | 0.00 | 89 | 1000.5 |
| 20260507064135 | 17 | 164 | 1.6 | 4.8 | 0.00 | 0.00 | 0.00 | 89 | 1000.8 |
| 20260507063636 | 17 | 17 | 6.4 | 9.7 | 0.00 | 0.00 | 0.00 | 89 | 1000.3 |
| 20260507063135 | 17 | 23 | 4.8 | 6.4 | 0.00 | 0.00 | 0.00 | 89 | 1000.3 |
| 20260507062537 | 17 | 120 | 6.4 | 6.4 | 0.00 | 0.00 | 0.00 | 89 | 999.9 |
| 20260507061936 | 17 | 80 | 3.2 | 6.4 | 0.00 | 0.00 | 0.00 | 89 | 999.6 |
| 20260507061445 | 17 | 86 | 3.2 | 4.8 | 0.00 | 0.00 | 0.00 | 88 | 999.7 |
| 20260507060935 | 17 | 353 | 4.8 | 6.4 | 0.00 | 0.00 | 0.00 | 88 | 1000.1 |
| 20260507060336 | 17 | 43 | 3.2 | 4.8 | 0.00 | 0.00 | 0.00 | 88 | 1000.6 |
| 20260507055835 | 17 | 42 | 3.2 | 4.8 | 0.00 | 0.00 | 0.00 | 88 | 1000.4 |
| 20260507055235 | 17 | 1 | 1.6 | 6.4 | 0.00 | 0.00 | 0.00 | 87 | 1000.5 |
| 20260507054635 | 17 | 67 | 0.0 | 3.2 | 0.00 | 0.00 | 0.00 | 87 | 1000.2 |
| 20260507054138 | 17 | 51 | 0.0 | 3.2 | 0.00 | 0.00 | 0.00 | 87 | 1000.1 |
| 20260507053636 | 17 | 349 | 4.8 | 6.4 | 0.00 | 0.00 | 0.00 | 87 | 1000.3 |
| 20260507053036 | 17 | 350 | 1.6 | 4.8 | 0.00 | 0.00 | 0.00 | 87 | 1000.2 |
| 20260507052436 | 17 | 172 | 3.2 | 4.8 | 0.00 | 0.00 | 0.00 | 87 | 999.9 |
| 20260507051837 | 17 | 21 | 4.8 | 6.4 | 0.00 | 0.00 | 0.00 | 87 | 999.8 |
| 20260507051240 | 17 | 183 | 1.6 | 4.8 | 0.00 | 0.00 | 0.00 | 86 | 999.8 |
| 20260507050639 | 17 | 344 | 1.6 | 9.7 | 0.00 | 0.00 | 0.00 | 86 | 999.8 |
| 20260507050135 | 17 | 83 | 4.8 | 6.4 | 0.00 | 0.00 | 0.00 | 86 | 999.7 |
| 20260507045646 | 17 | 250 | 3.2 | 4.8 | 0.00 | 0.00 | 0.00 | 86 | 999.8 |
| 20260507045135 | 17 | 66 | 0.0 | 3.2 | 0.00 | 0.00 | 0.00 | 86 | 1000.0 |
| 20260507044636 | 17 | 17 | 0.0 | 8.0 | 0.00 | 0.00 | 0.00 | 85 | 1000.0 |
| 20260507044135 | 17 | 56 | 3.2 | 6.4 | 0.00 | 0.00 | 0.00 | 85 | 1000.1 |